DELTA 1 DEB, 42636

Orbit data source: Space-Track

DELTA 1 DEB, 42636 is space debris in SSO originally from a launch on Thu, 12 Jun 1975 UTC launched from the Air Force Western Test Range (AFWTR). Debris objects in space refer to the collection of defunct objects orbiting the Earth. Examples of debris include non-operational satellites, rocket bodies, and fragments generated from explosions, collisions, or faulty payload assembly.

Loading next visibility...
Identifier
42636, 1975-052LV
Orbit
SSO
Country
Flag of USUS
Related business
Manufacturer
Unknown
Mission
Spacecraft
Bus & Motor
Unknown
Mass
Unknown
Launch date (UTC)
1975-06-12 (51 years ago)
Launch vehicle
Unknown
Launch site
Air Force Western Test Range (AFWTR)
Object type
Payload
Rocket body
Debris
Shape & HBR
Unknown shape, 0.1 m
Radar Cross Section
Small (<0.1 m²)

Expand to show TLE details & history
Last TLE update: 2 days ago

TLE from 2 days ago
0 DELTA 1 DEB
1 42636U 75052LV  26125.47538334  .00000252  00000-0  67340-3 0  9995
2 42636  99.6782 316.4796 0129499 266.5601 121.4582 13.22225333600320
Epoch: 2026-05-05T11:24Z
TLE epoch observation values (Epoch: 2026-05-05T11:24:33.120Z)
Latitude
28.86186°
Longitude
-83.37439°
Altitude
1,231.643 km
Speed
7.216 km/s
True Right ascension
20h 44m 27s
True Declination
28° 43' 33"
Sunlit
Object was in daylight at epoch
Visualization orbit readout
Latitude
Unknown
Longitude
Unknown
Altitude
Unknown
Speed
Unknown
Apparent Right ascension
Unknown
Apparent Declination
Unknown
Sunlit
N/A
Visualization observer readout
Local Sidereal Time
17:22:06
Azimuth
Unknown
Elevation
Unknown
Doppler factor
Unknown
Orbital elements
Apogee altitude
1,271.363 km
Perigee altitude
1,075.775 km
Semi-major axis
7,551.706 km
Eccentricity
0.01295
Inclination
99.6782°
RAAN
316.4796°
Arg. of periapsis
266.5601°
True anomaly
122.71333°
Mean anomaly
121.4582°
Eccentric anomaly
122.08683°
Mean motion
3.30732 °/min
Orbital period
108.85 mins
BSTAR
0.0006734
Loading maneuver chart data...
Computing Atmospheric mass density...
Loading historical data...
Loading historical data...
Loading historical data...
Loading historical data...
Loading historical data...
Loading historical data...
Loading historical data...

Documentation

Showing up to 5 results
|